Location: ???????
(55.1868°N, 38.2077°E)
Time: 18:12:14
(UTC+00:00)

Daily predictions for brighter satellites

Satellite Brightness Start Highest point End
(mag) Time Altitude Azimuth Time Altitude Azimuth Time Altitude Azimuth
RESURS DK-1 3.9 13:37:55 10° NNW 13:40:43 17° NNE 13:43:31 10° ENE
SL-16 R/B 2.8 13:36:26 10° NNE 13:42:44 77° WNW 13:49:00 10° SSW
Aureole 3 Rocket 3.0 13:37:57 10° N 13:43:02 75° ENE 13:46:45 10° SSE
Cosmos 2297 Rocket 2.3 13:43:08 10° SW 13:48:49 83° NW 13:54:31 10° NNE
Cosmos 407 Rocket 4.1 13:44:35 10° NNW 13:49:20 35° NE 13:54:02 10° ESE
Cosmos 1634 Rocket 4.1 13:43:03 10° N 13:49:24 85° ENE 13:55:45 10° SSE
Cosmos 1606 2.5 13:45:47 10° S 13:49:25 80° E 13:53:06 10° NNE
Cosmos 1953 Rocket 3.6 13:45:04 10° N 13:49:35 80° E 13:54:00 10° SSE
USA 305 3.4 13:46:31 10° W 13:50:12 53° SSW 13:53:57 10° SE
Cosmos 2298 Rocket 4.1 13:45:34 10° SSW 13:50:53 84° ESE 13:56:16 10° NNE
SMAP 3.5 13:47:01 10° SE 13:51:21 40° ENE 13:55:42 10° N
Cosmos 1500 3.3 13:51:06 10° N 13:54:31 45° ENE 13:57:55 10° SSE
Cosmos 2219 3.5 13:50:06 10° S 13:55:30 51° ESE 14:00:57 10° NE
Cosmos 2251 Rocket 4.0 13:51:32 10° NNW 13:56:35 41° NE 14:01:39 10° ESE
Helios 1B rocket 2.3 13:53:08 10° SSE 13:57:03 68° ENE 14:01:00 10° NNW
UNK 4.4 13:53:13 10° N 13:57:45 57° WNW 14:02:16 10° SW
H-2A R/B 3.6 13:54:19 10° SSW 13:59:02 39° W 14:03:42 10° NNW
CZ-4B R/B 4.3 13:56:43 10° SE 13:59:58 32° ENE 14:03:18 10° N
NOSS 3-3 (C) 4.0 13:58:05 10° SW 14:03:52 86° NW 14:10:42 10° NE
NOSS 3-3 (A) 4.0 13:58:28 10° SW 14:04:13 85° NW 14:11:01 10° NE
Cosmos 2142 Rocket 4.4 13:58:39 10° N 14:04:48 70° ENE 14:10:56 10° SSE
Cosmos 1833 Rocket 4.1 14:02:41 10° NNW 14:06:45 20° NNE 14:10:23 12° ENE
Cosmos 405 Rocket 2.8 14:04:03 10° S 14:07:48 56° E 14:11:36 10° NNE
SJ-11-01 4.2 14:05:09 10° SSE 14:09:48 86° ENE 14:14:29 10° NNW
ISS -1.0 14:07:52 10° WSW 14:10:24 20° SSW 14:12:57 10° SSE
Cosmos 2082 4.2 14:05:29 10° S 14:10:45 43° ESE 14:16:02 10° NE
Cosmos 1862 4.0 14:08:31 10° NNW 14:12:21 57° W 14:16:12 10° S
Cosmos 2279 Rocket 4.0 14:07:08 10° N 14:13:26 85° E 14:19:40 10° SSE
Cosmos 2151 3.0 14:09:42 10° NNW 14:14:00 87° WSW 14:18:16 10° S
COSMO-SKYMED 1 4.3 14:15:04 13° ENE 14:15:39 13° E 14:17:38 10° ESE
Lacrosse 4 Rocket 1.4 14:13:48 10° NW 14:18:12 79° NE 14:22:29 10° SE
Cosmos 1023 Rocket 4.4 14:13:43 10° NNW 14:18:54 66° ENE 14:24:00 10° SE
Cosmos-2242 4.0 14:15:54 10° SE 14:19:28 26° E 14:22:59 10° NNE
Cosmos 2058 Rocket 3.1 14:16:46 10° S 14:21:09 63° E 14:25:30 10° NNE
SL-08 RB Rocket 4.3 14:18:04 10° S 14:22:30 62° WSW 14:27:01 10° NNW
Cosmos 1606 Rocket 4.3 14:23:08 10° SSW 14:27:30 56° WNW 14:31:52 10° N
Cosmos 1726 Rocket 3.9 14:23:56 10° SSW 14:28:21 69° WNW 14:32:47 10° N
CZ-2D R/B 3.7 14:27:30 10° S 14:31:09 62° WSW 14:34:49 10° NNW
YAOGAN 11 4.2 14:30:50 10° NNE 14:35:21 61° ESE 14:39:51 10° S
Cosmos 1812 3.4 14:33:41 10° SSE 14:36:55 30° E 14:38:46 19° NE
Cosmos 2263 Rocket 2.3 14:31:38 10° SSW 14:37:04 57° ESE 14:41:40 15° NE
AQUARIUS 4.1 14:32:43 10° SSE 14:37:10 72° ENE 14:41:38 10° NNW
Cosmos 44 Rocket 4.4 14:32:47 10° NW 14:37:26 31° NNE 14:40:18 19° ENE
Cosmos 1844 Rocket 4.1 14:34:35 10° SE 14:37:56 16° E 14:38:39 16° E
Nadezhda 4 Rocket 4.2 14:32:12 10° SSE 14:38:02 48° E 14:43:53 10° NNE
BREEZE-M DEB (TANK) 4.0 14:34:45 10° SW 14:38:29 57° SSE 14:48:29 16° ENE
Cosmos 2084 4.5 14:36:45 10° WNW 14:40:03 27° N 14:41:59 18° NE
Cosmos 1437 Rocket 4.3 14:37:00 10° NNW 14:40:27 37° W 14:43:56 10° SSW
CORIOLIS 4.2 14:35:30 10° SSE 14:40:52 89° WSW 14:46:18 10° NNW
CZ-2C R/B 3.2 14:39:09 10° S 14:42:40 58° WSW 14:46:16 10° NNW
Meteor 1-20 Rocket 4.1 14:37:56 10° N 14:43:31 70° ENE 14:49:08 10° SSE
Cosmos 2082 Rocket 3.8 14:39:53 10° NNW 14:43:36 18° NNE 14:45:41 15° NE
Cosmos 2227 Rocket 2.6 14:39:29 10° SW 14:45:06 61° NW 14:50:24 12° NNE
USA 276 4.0 14:44:33 10° S 14:45:50 13° SSE 14:46:24 12° SE
Cosmos 1140 Rocket 3.5 14:41:16 10° NNW 14:46:30 86° WSW 14:51:39 10° SSE
Cosmos 1766 Rocket 4.4 14:43:26 10° N 14:47:11 27° ENE 14:50:53 10° ESE
ATLAS CENTAUR R/B 3.5 14:46:01 10° WNW 14:49:45 44° SSW 14:56:35 10° SE
ADEOS 3.9 14:46:47 10° SE 14:51:40 41° ENE 14:56:33 10° N
ERS-2 4.4 14:49:31 10° SSW 14:51:52 22° W 14:54:15 10° NW
NOSS 8 (A) 4.3 14:50:06 10° SW 14:53:31 57° SE 14:54:27 37° ENE
YAOGAN 1 3.5 14:52:56 25° ENE 14:53:42 26° ENE 14:57:19 10° N
Cosmos 1603 3.7 14:48:57 10° NW 14:54:42 88° SW 15:00:22 10° SSE
DMSP B5D2-2 4.0 14:50:46 10° NNE 14:56:01 82° ESE 15:01:15 10° SSW
Cosmos 1933 4.4 14:53:59 10° SE 14:56:42 24° ESE 14:56:42 24° ESE
Cosmos 1666 3.5 14:55:14 10° NNW 14:58:39 47° W 15:02:03 10° S
CBERS 1 LM4 rocket 4.2 14:57:36 10° SSE 15:02:20 65° ENE 15:07:02 10° NNW
SKYMED 2 4.3 15:03:42 30° E 15:04:16 31° E 15:08:09 10° SSE
Meteor PRIRODA 4.4 15:06:54 30° NNE 15:06:54 30° NNE 15:09:09 10° N
SL-08 R/B 4.3 15:07:56 25° ESE 15:07:56 25° ESE 15:11:09 10° SSE
Meteor 1-31 Rocket 3.5 15:05:47 10° S 15:09:24 51° W 15:13:03 10° NNW
CZ-4B R/B 3.5 15:09:18 34° E 15:09:47 35° ENE 15:13:35 10° N
OPS 6432 4.4 15:07:20 10° NW 15:10:27 48° NNE 15:10:28 48° NNE
Cosmos 1607 4.1 15:08:34 10° SW 15:14:58 78° NW 15:19:10 24° NE
Cosmos 676 Rocket 4.1 15:10:07 10° NNW 15:15:22 55° NE 15:19:20 17° SE
ATLAS 2AS CENTAUR R/B 2.6 15:08:40 10° NW 15:15:45 83° NE 15:21:39 14° SE
Cosmos 1943 4.2 15:13:10 10° NW 15:18:33 48° WSW 15:23:57 10° S
RESURS DK-1 2.3 15:15:17 10° NNW 15:19:22 58° NE 15:20:29 42° ESE
CZ-4B R/B 3.5 15:15:20 10° SSE 15:20:23 78° WSW 15:25:20 10° NNW
Helios 1A 2.9 15:22:23 35° NE 15:23:59 63° ESE 15:28:06 10° S
Radarsat Rocket 3.9 15:19:11 10° SSE 15:25:01 88° WSW 15:31:20 10° NNW
SL-16 R/B 4.5 15:20:45 10° N 15:25:30 23° NW 15:30:13 10° W
Cosmos 1812 Rocket 3.4 15:22:09 10° S 15:26:29 80° E 15:29:15 22° NNE
NOAA 6 4.0 15:22:32 10° SSE 15:27:40 86° WSW 15:32:50 10° NNW
Cosmos 1782 2.8 15:24:11 10° S 15:27:49 53° ESE 15:27:49 53° ESE
Cosmos 1271 Rocket 3.6 15:24:14 10° N 15:26:37 32° NNE 15:26:37 32° NNE
Cosmos 407 Rocket 4.2 15:26:31 10° NW 15:31:33 54° WSW 15:36:32 10° S
Cosmos 2297 Rocket 3.8 15:28:53 10° W 15:33:42 27° NNW 15:37:23 15° NNE
Cosmos 2344 3.6 15:26:49 10° SSW 15:33:58 53° SE 15:37:03 33° ENE
CZ-4B DEB 4.3 15:29:09 10° SE 15:34:31 54° ENE 15:39:56 10° N
ADEOS Rocket 3.7 15:35:52 29° NE 15:35:52 29° NE 15:40:04 10° N
Cosmos 2219 4.1 15:34:25 10° WSW 15:39:47 44° NW 15:43:29 19° NNE
Cosmos 1741 Rocket 4.5 15:37:20 10° NNW 15:42:03 40° NE 15:42:03 40° NE
Cosmos 1850 Rocket 4.4 15:39:04 10° NNW 15:43:36 41° NE 15:43:36 41° NE
Timation 2 Rocket 4.2 15:39:51 10° S 15:45:26 43° ESE 15:45:41 42° ESE
Cosmos 1954 Rocket 4.0 15:40:56 10° NNW 15:46:15 86° WSW 15:51:05 12° SSE
Cosmos 220 Rocket 4.4 15:42:47 10° NNW 15:47:05 62° WSW 15:51:16 10° SSE
Cosmos 1844 4.1 15:43:24 10° S 15:48:28 42° ESE 15:48:28 42° ESE
Cosmos 2056 Rocket 4.1 15:44:11 10° S 15:48:24 40° SE 15:48:24 40° SE
S3M 4.1 15:44:49 10° N 15:50:40 46° ENE 15:50:40 46° ENE
USA 234 3.5 15:50:14 41° E 15:52:02 51° SE 15:58:21 10° SW
Cosmos 1833 Rocket 3.0 15:46:42 10° NNW 15:52:06 45° NE 15:52:06 45° NE
COSMO-SKYMED 1 2.4 15:52:17 75° NE 15:52:33 80° ESE 15:56:55 10° SSW
Meteor 1-14 Rocket 4.1 15:47:23 10° N 15:52:52 58° ENE 15:53:31 54° E
Cosmos 1553 Rocket 3.9 15:46:31 10° N 15:52:55 75° ENE 15:59:09 10° SSE
Lacrosse 5 2.8 15:48:39 10° SSW 15:52:30 32° SSE 15:52:30 32° SSE
Cosmos 2082 4.4 15:49:23 10° WSW 15:54:50 49° NW 15:57:54 25° NNE
Lacrosse 4 Rocket 4.2 15:53:00 10° WNW 15:56:07 19° WSW 15:59:10 10° SSW
Cosmos-2242 4.0 15:52:27 10° SSW 15:56:39 46° WNW 15:59:41 17° N
Meteor 2-2 Rocket 4.4 15:54:24 10° SSW 16:00:12 75° WNW 16:05:55 11° NNE
PAYLOAD B 4.1 15:59:55 57° ESE 16:00:47 65° ENE 16:06:19 10° NNW
Cosmos 2026 Rocket 4.0 15:59:15 10° SSW 16:05:32 84° WNW 16:11:58 10° N
COSMOS 2406 4.4 16:01:07 10° NNW 16:04:56 26° NNE 16:04:56 26° NNE
Cosmos 2221 4.2 16:02:46 10° S 16:04:18 22° S 16:04:18 22° S
Cosmos 1818 3.4 16:02:30 10° SW 16:07:55 73° SE 16:08:07 72° ESE
Cosmos 1812 4.5 16:08:46 10° SW 16:12:03 30° WNW 16:13:14 24° NW
Cosmos 1371 Rocket 4.4 16:08:14 10° SSW 16:12:11 49° SSE 16:12:11 49° SSE
IGS 5A 4.5 16:19:28 41° NW 16:19:28 41° NW 16:22:22 10° NNW
CZ-4B R/B 3.5 16:19:50 54° NNE 16:19:50 54° NNE 16:24:18 10° NNW
Cosmos 44 Rocket 3.8 16:14:37 10° NW 16:18:59 54° N 16:18:59 54° N
Cosmos 1844 Rocket 2.6 16:15:21 10° SSW 16:20:21 68° SSE 16:20:21 68° SSE
Meteor 1-26 Rocket 4.1 16:15:22 10° S 16:20:58 88° ESE 16:21:52 65° NNE
Cosmos 2263 Rocket 3.2 16:16:01 10° WSW 16:21:14 40° NW 16:23:22 29° N
Cosmos 1092 Rocket 4.3 16:16:56 10° SSW 16:23:01 65° WNW 16:29:10 10° N
Cosmos 1766 Rocket 4.5 16:21:02 10° NNW 16:25:13 46° W 16:29:22 10° SSW
Cosmos 2082 Rocket 3.5 16:24:15 10° NNW 16:27:32 28° N 16:27:32 28° N
Cosmos 1420 Rocket 4.4 16:24:11 10° SSW 16:28:11 53° SSW 16:28:11 53° SSW
YAOGAN 1 3.4 16:29:59 48° WNW 16:29:59 48° WNW 16:33:44 10° NNW
Cosmos 2227 Rocket 4.0 16:25:51 10° WNW 16:30:17 23° NNW 16:32:12 19° N
Cosmos 1417 Rocket 4.5 16:31:00 10° NNW 16:37:19 83° W 16:39:18 47° S
ATLAS 2AS CENTAUR R/B 4.0 17:00:03 10° WNW 17:06:06 34° WSW 17:09:08 23° SSW
Cosmos 2297 Rocket 4.4 17:16:10 10° NW 17:19:11 16° NNW 17:19:11 16° NNW
ADEOS Rocket 4.2 17:22:48 33° NNW 17:22:48 33° NNW 17:26:03 10° NNW
USA 234 4.0 17:37:35 47° WSW 17:37:35 47° WSW 17:42:00 10° WSW
Lacrosse 5 4.3 17:30:39 10° WSW 17:31:43 16° WSW 17:31:43 16° WSW
Cosmos 1833 Rocket 4.3 17:30:45 10° NW 17:33:48 30° WNW 17:33:48 30° WNW
Cosmos 2344 4.0 17:41:04 10° WSW 17:47:04 55° WNW 17:47:04 55° WNW
